Guest (not logged in) | Log in

Project information

Duration: 2018-12-20 00:00 onwards
Historical data from: 1995-01-01
Position: 0° 0' 0.00" N
0° 0' 0.00" E
0 m A.S.L
Contact: Carsten Weber Kock
Description: Zephir 317 måler vind i Roskilde

Measurements

NameHeight [m]DurationLatest (2019-04-25 23:50)
Dir_100m 0.00 2018-12-20 14:20 onwards 126.78 Deg
Dir_10m 0.00 2018-12-20 14:20 onwards 125.14 Deg
Dir_125m 0.00 2018-12-20 14:20 onwards 126.18 Deg
Dir_150m 0.00 2018-12-20 14:20 onwards 124.41 Deg
Dir_200m 0.00 2018-12-20 14:20 onwards 121.09 Deg
Dir_20m 0.00 2018-12-20 14:20 onwards 117.51 Deg
Dir_30m 0.00 2018-12-20 14:20 onwards 118.24 Deg
Dir_38m 0.00 2018-12-20 14:20 onwards 119.04 Deg
Dir_50m 0.00 2018-12-20 14:20 onwards 120.25 Deg
Dir_60m 0.00 2018-12-20 14:20 onwards 120.74 Deg
Dir_800m 0.00 2018-12-20 14:20 onwards 116.37 Deg
Dir_80m 0.00 2018-12-20 14:20 onwards 125.14 Deg
Humidity 0.00 2018-12-20 14:20 onwards -
MetDir 0.00 2018-12-20 14:20 onwards 145.21 Deg
Metwsp 0.00 2018-12-20 14:20 onwards 2.47 m/s
Pressure 0.00 2018-12-20 14:20 onwards 1005.90 mbar
Temp 0.00 2018-12-20 14:20 onwards 8.20 DegC
TI_100m 0.00 2018-12-20 14:20 onwards 0.03 -
TI_10m 0.00 2018-12-20 14:20 onwards 0.17 -
TI_125m 0.00 2018-12-20 14:20 onwards 0.03 -
TI_150m 0.00 2018-12-20 14:20 onwards 0.03 -
TI_200m 0.00 2018-12-20 14:20 onwards 0.05 -
TI_20m 0.00 2018-12-20 14:20 onwards 0.11 -
TI_30m 0.00 2018-12-20 14:20 onwards 0.07 -
TI_38m 0.00 2018-12-20 14:20 onwards 0.05 -
TI_50m 0.00 2018-12-20 14:20 onwards 0.05 -
TI_60m 0.00 2018-12-20 14:20 onwards 0.04 -
TI_800m 0.00 2018-12-20 14:20 onwards 0.10 -
TI_80m 0.00 2018-12-20 14:20 onwards 0.03 -
Vert_100m 0.00 2018-12-20 14:20 onwards -0.23 m/s
Vert_10m 0.00 2018-12-20 14:20 onwards -0.01 m/s
Vert_125m 0.00 2018-12-20 14:20 onwards -0.22 m/s
Vert_150m 0.00 2018-12-20 14:20 onwards -0.22 m/s
Vert_200m 0.00 2018-12-20 14:20 onwards -0.26 m/s
Vert_20m 0.00 2018-12-20 14:20 onwards -0.03 m/s
Vert_30m 0.00 2018-12-20 14:20 onwards -0.04 m/s
Vert_38m 0.00 2018-12-20 14:20 onwards -0.02 m/s
Vert_50m 0.00 2018-12-20 14:20 onwards -0.08 m/s
Vert_60m 0.00 2018-12-20 14:20 onwards -0.13 m/s
Vert_800m 0.00 2018-12-20 14:20 onwards -0.05 m/s
Vert_80m 0.00 2018-12-20 14:20 onwards -0.20 m/s
Wsp_100m 0.00 2018-12-20 14:20 onwards 8.61 m/s
Wsp_10m 0.00 2018-12-20 14:20 onwards 4.15 m/s
Wsp_125m 0.00 2018-12-20 14:20 onwards 8.35 m/s
Wsp_150m 0.00 2018-12-20 14:20 onwards 8.17 m/s
Wsp_200m 0.00 2018-12-20 14:20 onwards 7.57 m/s
Wsp_20m 0.00 2018-12-20 14:20 onwards 4.85 m/s
Wsp_30m 0.00 2018-12-20 14:20 onwards 5.53 m/s
Wsp_38m 0.00 2018-12-20 14:20 onwards 5.86 m/s
Wsp_50m 0.00 2018-12-20 14:20 onwards 6.70 m/s
Wsp_60m 0.00 2018-12-20 14:20 onwards 7.44 m/s
Wsp_800m 0.00 2018-12-20 14:20 onwards 5.28 m/s
Wsp_80m 0.00 2018-12-20 14:20 onwards 8.65 m/s
Comments and help requests to webmaster
© 2019